Tracking 20083 objects as of 12-Dec-2019
HD Live streaming from Space Station
objects crossing your sky now

FENGYUN 1C DEB

Track FENGYUN 1C DEB now!
10-day predictions


NORAD ID: 36155
Int'l Code: 1999-025DSC
Perigee: 821.2 km
Apogee: 863.4 km
Inclination: 99.0 °
Period: 101.6 minutes
Semi major axis: 7213 km
RCS: 0.0109 m2 (small)
Launch date: May 10, 1999
Source: People's Republic of China (PRC)
Launch site: Taiyaun Space Center, China (TSC)

Note: This is SATELLITE DEBRIS
aabbcc
Your satellite tracking list
Your tracking list is empty




NASA's NSSDC Master Catalog

Two Line Element Set (TLE):
1 36155U 99025DSC 19343.88153043  .00000654  00000-0  34612-3 0  9991
2 36155  99.0054  13.9074 0029295 209.2884 150.6649 14.17099859636125
Source of the keplerian elements: AFSPC